Погода в Троицком

Россия / Омская область     54°51′57″N   73°18′08″E
темп.,
°C
ветер,
м/с
пор.,
м/с
влажн.,
%
обл.,
%
осадки,
мм/ч
давл.,
гПа
погр.,
м
1 августа, вс
вс100:00+18с22805 0.0 101015
03:00+17св118580 0.0 101111
06:00+16вюв1188100 0.0 101111
09:00+21ююв226788 0.0 1011294
12:00+26ююз225095 0.0 10101694
15:00+29юз3440100 0.0 10092153
18:00+28ююз33425 0.0 10081622
21:00+24ююз3657100 0.0 1007105
2 августа, пн
пн200:00+20ююв228678 1.6 100738
03:00+18зюз23890 0.3 100535
06:00+17з310950 0.3 1005238
09:00+22сз710788 0.0 1006668
12:00+27сз7947100 0.0 10061747
15:00+29сз783672 0.0 10062705
18:00+27зсз673814 0.0 10062166
21:00+23ссз51056100 0.1 1008685
3 августа, вт
вт300:00+19зсз346954 0.1 100876
03:00+17зсз36752 0.0 1008104
06:00+16зсз488093 0.0 1009168
09:00+19зсз4964100 0.0 1010368
12:00+23сз585220 0.0 1010984
15:00+23сз6944100 0.0 10101007
18:00+24сз574198 0.0 10101035
21:00+19з346044 0.0 101052
4 августа, ср
ср400:00+17в237199 0.0 101047
03:00+18зюз1168100 0.1 101011
06:00+16зсз227641 0.1 101120
09:00+21сз4660100 0.2 1011376
12:00+24сз684756 0.6 10101675
15:00+25ссз793930 0.0 10102290
18:00+23с784619 0.0 10111504
21:00+21с35546 0.0 1012115
5 августа, чт
чт500:00+17с33690 0.0 101227
03:00+15ссз22790 0.0 101216
06:00+15с22900 0.0 101220
09:00+21ссз34630 0.0 1013483
12:00+25ссз453811 0.0 10121965
15:00+27с3434100 0.0 10112137
18:00+26ссв4435100 0.0 10112005
21:00+22св355187 0.0 101191